TimeEDT,TemperatureF,Dew PointF,Humidity,Sea Level PressureIn,VisibilityMPH,Wind Direction,Wind SpeedMPH,Gust SpeedMPH,PrecipitationIn,Events,Conditions,WindDirDegrees,DateUTC
12:55 AM,31.1,18.9,61,29.70,10.0,WNW,10.4,19.6,N/A,,Mostly Cloudy,290,2013-03-23 04:55:00
1:55 AM,29.3,15.6,57,29.70,10.0,West,6.9,-,N/A,,Mostly Cloudy,280,2013-03-23 05:55:00
2:55 AM,29.1,18.0,63,29.69,10.0,West,8.1,-,N/A,,Scattered Clouds,260,2013-03-23 06:55:00
3:55 AM,28.6,16.5,61,29.68,10.0,West,11.5,-,N/A,,Partly Cloudy,270,2013-03-23 07:55:00
4:55 AM,26.2,16.2,66,29.67,10.0,SW,8.1,-,N/A,,Partly Cloudy,230,2013-03-23 08:55:00
5:55 AM,27.1,17.2,66,29.66,10.0,WSW,9.2,-,N/A,,Partly Cloudy,250,2013-03-23 09:55:00
6:55 AM,27.1,17.6,67,29.65,10.0,WSW,10.4,-,N/A,,Partly Cloudy,240,2013-03-23 10:55:00
7:55 AM,29.3,18.3,64,29.66,10.0,WSW,11.5,-,N/A,,Scattered Clouds,250,2013-03-23 11:55:00
8:55 AM,32.2,19.4,59,29.65,10.0,WSW,15.0,20.7,N/A,,Mostly Cloudy,250,2013-03-23 12:55:00
9:55 AM,34.0,19.0,54,29.64,10.0,West,15.0,26.5,N/A,,Mostly Cloudy,280,2013-03-23 13:55:00
10:55 AM,34.7,17.2,49,29.62,10.0,WNW,15.0,28.8,N/A,,Mostly Cloudy,290,2013-03-23 14:55:00
11:55 AM,36.9,15.3,41,29.60,10.0,West,24.2,41.4,N/A,,Mostly Cloudy,280,2013-03-23 15:55:00
12:55 PM,38.7,14.9,38,29.59,10.0,West,23.0,35.7,N/A,,Mostly Cloudy,280,2013-03-23 16:55:00
1:55 PM,39.4,16.9,40,29.59,10.0,West,27.6,35.7,N/A,,Mostly Cloudy,280,2013-03-23 17:55:00
2:55 PM,39.6,16.7,40,29.59,10.0,West,17.3,26.5,N/A,,Mostly Cloudy,280,2013-03-23 18:55:00
3:55 PM,39.9,14.7,36,29.59,10.0,WNW,20.7,28.8,N/A,,Mostly Cloudy,300,2013-03-23 19:55:00
4:55 PM,40.8,16.5,37,29.62,10.0,WNW,16.1,24.2,N/A,,Mostly Cloudy,290,2013-03-23 20:55:00
5:55 PM,39.2,17.1,41,29.65,10.0,WNW,17.3,28.8,N/A,,Mostly Cloudy,300,2013-03-23 21:55:00
6:55 PM,37.8,18.3,46,29.68,10.0,WNW,19.6,34.5,N/A,,Mostly Cloudy,300,2013-03-23 22:55:00
7:55 PM,37.0,19.0,48,29.70,10.0,WNW,19.6,26.5,N/A,,Mostly Cloudy,290,2013-03-23 23:55:00
8:55 PM,36.0,19.8,52,29.73,10.0,WNW,12.7,23.0,N/A,,Scattered Clouds,290,2013-03-24 00:55:00
9:55 PM,34.7,19.9,55,29.73,10.0,WNW,12.7,20.7,N/A,,Partly Cloudy,290,2013-03-24 01:55:00
10:55 PM,34.2,19.6,55,29.72,10.0,West,11.5,17.3,N/A,,Partly Cloudy,280,2013-03-24 02:55:00
11:55 PM,33.8,19.8,56,29.71,10.0,West,13.8,-,N/A,,Partly Cloudy,280,2013-03-24 03:55:00